Regional Weather Roundup
Issued by NWS Albany, NY

Home | Current Version | Previous Version | Text Only | Print | Product List | Glossary On
Versions: 1 2 3 4 5 6 7 8 9 10 11 12 13 14 15 16 17 18 19 20 21 22 23 24 25 26 27 28 29 30 31 32 33 34 35 36 37 38 39 40 41 42 43 44 45 46 47 48 49 50
000
ASUS41 KALY 291910
RWRALY

NEW YORK STATE HOURLY WEATHER ROUNDUP
NATIONAL WEATHER SERVICE ALBANY NY
300 PM EDT SAT AUG 29 2015

NOTE: "FAIR" INDICATES FEW OR NO CLOUDS BELOW 12,000 FEET WITH NO
SIGNIFICANT WEATHER AND/OR NO OBSTRUCTIONS TO VISIBILITY.

NYZ032-033-038>043-046>054-057>066-NYZ062>081-292000-
EAST


CITY           SKY/WX    TMP DP  RH WIND       PRES   REMARKS
ALBANY         PTSUNNY   79  58  48 S9        30.13F
GLENS FALLS    MOSUNNY   79  58  48 S8        30.11F
POUGHKEEPSIE   MOSUNNY   84  56  38 N5        30.12F
NEWBURGH       MOSUNNY   81  61  50 W12       30.16F
MONTGOMERY     SUNNY     82  59  45 S9        30.13F
WHITE PLAINS   PTSUNNY   82  55  39 NE5       30.14F
ISLIP          PTSUNNY   81  58  45 S12       30.13F
NEW YORK CITY  PTSUNNY   85  53  33 SW6       30.13F
CENTRAL PARK   MOSUNNY   86  54  33 CALM      30.16F
$$

NYZ005>009-017-018-044>046-055-056-292000-
CENTRAL


CITY           SKY/WX    TMP DP  RH WIND       PRES   REMARKS
FULTON         MOSUNNY   76  61  59 NW8       30.14S
SYRACUSE       PTSUNNY   79  57  46 W8        30.12S
ROME           PTSUNNY   80  58  46 VRB3      30.13F
ELMIRA         MOSUNNY   81  58  45 VRB3      30.12F
BINGHAMTON     MOSUNNY   76  59  55 MISG      30.16F
MONTICELLO     MOSUNNY   75  59  57 SW8       30.19F
$$

NYZ026>034-041>043-292000-
NORTH


CITY           SKY/WX    TMP DP  RH WIND       PRES   REMARKS
WATERTOWN      MOSUNNY   74  62  66 W13       30.11F
FORT DRUM      NOT AVBL
MASSENA        CLOUDY    73  59  61 SW8       30.10F
SARANAC LAKE   PTSUNNY   73  53  49 SW10G17   30.12F
PLATTSBURGH    MOSUNNY   73  58  59 SE13      30.09F
$$

NYZ001>004-010>016-019>021-292000-
WEST


CITY           SKY/WX    TMP DP  RH WIND       PRES   REMARKS
NIAGARA FALLS  PTSUNNY   77  57  50 SW9       30.12F
BUFFALO        PTSUNNY   76  54  46 W5        30.13F
DUNKIRK        MOSUNNY   75  58  55 NW6       30.13F
JAMESTOWN      MOSUNNY   73  55  53 W6        30.16F
WELLSVILLE     MOSUNNY   77  52  41 NW9       30.20F
ROCHESTER      PTSUNNY   75  56  51 NW5       30.14F
PENN YAN       PTSUNNY   80  56  43 N5        30.14F
$$

             KEY
       WCI = WIND CHILL INDEX
       VSB = VISIBILITY
       HX  = HEAT INDEX
$$



USA.gov is the U.S. government's official web portal to all federal, state and local government web resources and services.